Location: Arbon
(43.0005°N, 0.7472°E)
Time: 22:12:44
(UTC+00:00)

Explorer 7 - Pass Details

Date: 02 December 2020
Orbit: 484 x 678 km, 50.3° (Epoch: 25 January)

Event Time Altitude Azimuth Distance (km) Brightness Sun altitude
Rises 04:48:50 0° 298° (WNW) 2,834 - -25.1°
Reaches altitude 10° 04:51:18 10° 305° (NW) 1,895 - -24.7°
Maximum altitude 04:55:23 40° 16° (NNE) 827 - -23.9°
Exits shadow 04:55:25 40° 18° (NNE) 827 7.7 -23.9°
Drops below altitude 10° 04:59:12 10° 87° (E) 1,779 10.5 -23.2°
Sets 05:01:27 0° 95° (E) 2,637 11.8 -22.8°
